Location: *
(50.0228°S, 177.2688°W)
Time: 12:55:57
(UTC+00:00)

Cosmos 2074 Rocket - Pass Details

Date: 07 April 2020
Orbit: 968 x 986 km, 82.9° (Epoch: 27 May)

Event Time Altitude Azimuth Distance (km) Brightness Sun altitude
Exits shadow 09:00:07 60° 238° (WSW) 1,126 4.4 -34.2°
Drops below altitude 10° 09:06:00 10° 176° (S) 2,766 6.7 -35.0°
Sets 09:08:35 0° 172° (S) 3,718 7.4 -35.3°
